Weather History for Beaufort MCAS, SC

Change the Weather History Date:

Tuesday, December 23, 2014

  Actual Average Record
Temperature  
Mean Temperature 52 °F -  
Max Temperature 55 °F 60 °F 81 °F (1970)
Min Temperature 48 °F 41 °F 16 °F (1989)
Degree Days  
Heating Degree Days 14    
Growing Degree Days 2 (Base 50)    
Moisture  
Dew Point 51 °F    
Average Humidity 97    
Maximum Humidity 100    
Minimum Humidity 93    
Precipitation  
Precipitation 0.77 in - - ()
Sea Level Pressure  
Sea Level Pressure 29.97 in    
Wind  
Wind Speed 5 mph (NNE)    
Max Wind Speed 7 mph    
Max Gust Speed -    
Visibility 4 miles    
Events Fog , Rain , Thunderstorm    
Averages and records for this station are not official NWS values.
T = Trace of Precipitation, MM = Missing Value Source: NWS Daily Summary

Daily Weather History Graph

Daily Weather History Graph

Search for Another Location

Airport:

Trip Planner

Search our weather history database for the weather conditions in past years. The results will help you decide how hot, cold, wet, or windy it might be!

Date:

Astronomy

Dec. 23, 2014 Rise Set
Actual Time 7:21 AM EST 5:22 PM EST
Civil Twilight 6:54 AM EST 5:49 PM EST
Nautical Twilight 6:23 AM EST 6:20 PM EST
Astronomical Twilight 5:53 AM EST 6:50 PM EST
Moon 8:30 AM EST (12/23) 7:29 PM EST (12/23)
Length of Visible Light 10h 55m
Length of Day
10h 01m
Waxing Crescent, 4% of the Moon is Illuminated
Dec 23
Waxing Crescent
Dec 28
First Quarter
Jan 4
Full
Jan 13
Last Quarter
Jan 20
New

Hourly Weather History & Observations

Time (EST) Temp. Dew Point Humidity Pressure Visibility Wind Dir Wind Speed Gust Speed Precip Events Conditions
12:24 AM 48.0 °F 46.9 °F 96% 29.97 in 0.8 mi NE 4.6 mph - N/A   Mist
12:37 AM 48.0 °F 46.9 °F 96% 29.98 in 0.5 mi NE 5.8 mph - N/A Fog Fog
12:56 AM 48.9 °F 48.0 °F 97% 29.97 in 0.5 mi ENE 3.5 mph - N/A Fog Fog
1:19 AM 48.9 °F 48.0 °F 97% 29.97 in 0.8 mi NNE 5.8 mph - N/A   Mist
1:31 AM 48.9 °F 48.0 °F 97% 29.98 in 1.2 mi NE 3.5 mph - N/A   Overcast
1:44 AM 48.9 °F 48.0 °F 97% 29.99 in 1.8 mi NNE 6.9 mph - N/A   Overcast
1:56 AM 48.9 °F 48.0 °F 97% 29.99 in 1.8 mi NNE 4.6 mph - N/A   Overcast
2:20 AM 48.9 °F 48.0 °F 97% 29.98 in 1.5 mi ENE 4.6 mph - N/A   Overcast
2:27 AM 48.9 °F 48.0 °F 97% 29.97 in 2.0 mi NE 4.6 mph - N/A   Overcast
2:38 AM 48.9 °F 48.0 °F 97% 29.98 in 4.0 mi North 5.8 mph - N/A   Overcast
2:56 AM 48.9 °F 48.0 °F 97% 29.97 in 6.0 mi NNE 4.6 mph - N/A   Overcast
3:56 AM 48.9 °F 48.0 °F 97% 29.97 in 5.0 mi NE 5.8 mph - N/A   Overcast
4:56 AM 48.9 °F 48.0 °F 97% 29.97 in 5.0 mi NE 3.5 mph - N/A   Overcast
5:15 AM 48.9 °F 48.0 °F 97% 29.96 in 4.0 mi NNE 5.8 mph - N/A   Overcast
5:29 AM 48.9 °F 48.0 °F 97% 29.97 in 2.5 mi NNE 4.6 mph - N/A   Overcast
5:56 AM 48.9 °F 48.0 °F 97% 29.97 in 2.0 mi NE 6.9 mph - N/A   Overcast
6:04 AM 48.9 °F 48.0 °F 97% 29.98 in 1.5 mi NE 4.6 mph - N/A   Overcast
6:19 AM 48.9 °F 48.0 °F 97% 29.98 in 1.8 mi Calm Calm - N/A   Overcast
6:56 AM 48.9 °F 48.9 °F 100% 29.98 in 1.5 mi Calm Calm - N/A   Overcast
7:12 AM 50.0 °F 48.9 °F 96% 29.98 in 0.5 mi Calm Calm - N/A Fog Fog
7:56 AM 50.0 °F 48.9 °F 96% 29.99 in 0.2 mi NNE 4.6 mph - N/A Fog Fog
8:44 AM 50.0 °F 48.9 °F 96% 29.99 in 0.5 mi ENE 3.5 mph - N/A Fog Fog
8:56 AM 50.0 °F 48.9 °F 96% 29.99 in 0.2 mi NNE 5.8 mph - N/A Fog Fog
9:56 AM 51.1 °F 50.0 °F 96% 30.01 in 0.2 mi NE 4.6 mph - N/A Fog Fog
10:56 AM 51.1 °F 51.1 °F 100% 30.02 in 0.2 mi NNE 4.6 mph - N/A Fog Fog
11:56 AM 51.1 °F 51.1 °F 100% 30.02 in 0.2 mi North 4.6 mph - N/A Fog Fog
12:56 PM 52.0 °F 51.1 °F 97% 29.99 in 0.2 mi NNE 4.6 mph - 0.00 in Fog , Rain Light Rain
1:38 PM 52.0 °F 51.1 °F 97% 29.97 in 0.5 mi North 4.6 mph - 0.00 in Fog Fog
1:44 PM 52.0 °F 51.1 °F 97% 29.96 in 1.0 mi North 4.6 mph - 0.00 in   Mist
1:52 PM 51.8 °F 51.8 °F 100% 29.94 in 1.8 mi NNE 6.9 mph - 0.00 in   Overcast
1:56 PM 53.1 °F 52.0 °F 96% 29.95 in 2.0 mi NNE 6.9 mph - 0.00 in   Overcast
2:07 PM 53.1 °F 52.0 °F 96% 29.95 in 4.0 mi North 4.6 mph - N/A   Overcast
2:33 PM 53.1 °F 52.0 °F 96% 29.95 in 6.0 mi NE 4.6 mph - N/A   Overcast
2:56 PM 54.0 °F 53.1 °F 97% 29.95 in 6.0 mi NE 4.6 mph - N/A   Overcast
3:56 PM 54.0 °F 53.1 °F 97% 29.95 in 6.0 mi NNE 5.8 mph - N/A   Overcast
4:25 PM 54.0 °F 53.1 °F 97% 29.94 in 1.0 mi North 6.9 mph - 0.03 in Rain , Thunderstorm Light Thunderstorms and Rain
4:52 PM 53.6 °F 53.6 °F 100% 29.96 in 1.0 mi West 5.8 mph - 0.47 in Rain , Thunderstorm Light Thunderstorms and Rain
4:56 PM 55.0 °F 54.0 °F 96% 29.97 in 1.0 mi NNW 4.6 mph - 0.58 in Rain , Thunderstorm Heavy Thunderstorms and Rain
5:09 PM 55.0 °F 54.0 °F 96% 29.96 in 4.0 mi WNW 5.8 mph - 0.03 in Rain Light Rain
5:56 PM 55.0 °F 54.0 °F 96% 29.99 in 6.0 mi Calm Calm - 0.12 in Rain Rain
6:21 PM 55.0 °F 53.1 °F 93% 29.97 in 7.0 mi NNE 6.9 mph - 0.04 in Rain Light Rain
6:46 PM 55.0 °F 54.0 °F 96% 29.98 in 6.0 mi NNE 4.6 mph - 0.06 in Rain Light Rain
6:52 PM 55.4 °F 53.6 °F 94% 29.98 in 6.0 mi North 4.6 mph - 0.06 in Rain Light Rain
6:56 PM 55.0 °F 53.1 °F 93% 29.97 in 6.0 mi North 5.8 mph - 0.06 in Rain Light Rain
7:56 PM 54.0 °F 52.0 °F 93% 29.95 in 10.0 mi NE 6.9 mph - 0.01 in   Overcast
8:34 PM 54.0 °F 52.0 °F 93% 29.92 in 6.0 mi Variable 3.5 mph - 0.00 in Rain Light Rain
8:56 PM 54.0 °F 53.1 °F 97% 29.94 in 10.0 mi North 4.6 mph - 0.00 in   Overcast
9:56 PM 54.0 °F 53.1 °F 97% 29.93 in 10.0 mi North 4.6 mph - 0.00 in Rain Light Rain
10:04 PM 54.0 °F 53.1 °F 97% 29.93 in 10.0 mi NNE 4.6 mph - 0.00 in Rain Light Rain
10:56 PM 54.0 °F 53.1 °F 97% 29.91 in 10.0 mi NNE 5.8 mph - 0.00 in   Overcast
11:03 PM 54.0 °F 53.1 °F 97% 29.92 in 10.0 mi Calm Calm - N/A   Overcast
11:56 PM 55.0 °F 53.1 °F 93% 29.90 in 10.0 mi ENE 4.6 mph - N/A   Overcast